This is the latest recevied weather packets stored in our database for station/object ALTO-WX. If no packets are shown the sender has not sent any weather packets the latest 10 day(s).
| Time | Temp. | Humidity | Pressure | Rain* | Wind** | Luminosity | Snow |
|---|---|---|---|---|---|---|---|
| 1778239856 | 2.22° C | 77% | 980.6 hPa | 0 mm | - | - | - |
| 1778238934 | 2.22° C | 77% | 980.6 hPa | 0 mm | - | - | - |
| 1778238061 | 1.67° C | 77% | 980.6 hPa | 0 mm | - | - | - |
| 1778237137 | 1.67° C | 74% | 979.8 hPa | 0 mm | - | - | - |
| 1778236254 | 1.67° C | 73% | 980.8 hPa | 0 mm | - | - | - |
| 1778235337 | 2.22° C | 73% | 980.8 hPa | 0 mm | - | - | - |
| 1778234460 | 2.78° C | 73% | 980.8 hPa | 0 mm | - | - | - |
| 1778233536 | 2.78° C | 74% | 980.1 hPa | 0 mm | - | - | - |
| 1778232650 | 2.78° C | 75% | 980.8 hPa | 0 mm | - | - | - |
| 1778231737 | 2.78° C | 75% | 980.8 hPa | 0 mm | - | - | - |
| 1778230864 | 2.78° C | 75% | 980.8 hPa | 0 mm | - | - | - |
| 1778229937 | 2.78° C | 68% | 980.4 hPa | 0 mm | - | - | - |
| 1778229055 | 3.33° C | 77% | 980.2 hPa | 0 mm | - | - | - |
| 1778228136 | 3.33° C | 77% | 980.1 hPa | 0 mm | - | - | - |
| 1778227266 | 3.33° C | 77% | 980.1 hPa | 0 mm | - | - | - |
| 1778226337 | 3.33° C | 76% | 980.9 hPa | 0 mm | - | - | - |
| 1778225455 | 3.89° C | 76% | 980.9 hPa | 0 mm | - | - | - |
| 1778224536 | 3.89° C | 76% | 980.9 hPa | 0 mm | - | - | - |
| 1778223666 | 3.89° C | 76% | 980.9 hPa | 0 mm | - | - | - |
| 1778222736 | 4.44° C | 75% | 980.8 hPa | 0 mm | - | - | - |
| 1778221852 | 4.44° C | 76% | 981.1 hPa | 0 mm | - | - | - |
| 1778220936 | 5° C | 76% | 981.2 hPa | 0 mm | - | - | - |
| 1778220076 | 5° C | 76% | 981.2 hPa | 0 mm | - | - | - |
| 1778219135 | 5° C | 74% | 981.8 hPa | 0 mm | - | - | - |
| 1778218256 | 5° C | 70% | 981.4 hPa | 0 mm | - | - | - |
* Rain latest hour (hover to see other rain measurements)
** Current wind speed in m/s (hover to see current wind gust speed)